Notices

What's New in latest Release from April 7th, 2021:

- Updated Glossary, including Speed of Maximum Gust, and Total Hourly Precipitation

- Updated national and regional climate services offices contacts and prices information

- Addition of station inventory lists for 1981-2010, 1971-2000, and 1961-1990 Normals.

If you haven't already, please take our survey and provide feedback about our website: https://eccc.sondage-survey.ca/f/LanguageSelection.aspx?s=442ca660-fcf1-47c0-95a9-59707d6fd709

Hourly Data Report for December 26, 2019

SAINT JOHN A
NEW BRUNSWICK
Current Station Operator: NAVCAN

45°18'58.000" N
65°53'24.000" W
108.80 m
8104901
71609
YSJ

Download Data

Hourly Data (December 2019)
Hourly Data Report for December 26, 2019
TIME
LST
Temp Definition
°C
Dew Point Definition
°C
Rel Hum Definition
%
Precip. Amount Definition
mm

Wind Dir Definition
10's deg

Wind Spd Definition
km/h
Visibility Definition
km
Stn Press Definition
kPa
Hmdx Definition


Wind Chill Definition


Weather Definition


00:00 -10.2 -13.2 79   34 16 24.1 100.77   -17 LegendNANA
01:00 -10.7 -13.5 80   33 18 24.1 100.78   -18 LegendNANA
02:00 -10.9 -13.8 79   35 20 24.1 100.88   -19 Clear
03:00 -11.3 -14.2 80   35 18 24.1 100.98   -19 LegendNANA
04:00 -11.7 -14.5 80   34 19 24.1 101.04   -20 LegendNANA
05:00 -12.1 -15.2 78   35 19 24.1 101.06   -20 Clear
06:00 -12.3 -15.2 79   33 16 24.1 101.14   -20 LegendNANA
07:00 -12.6 -15.6 79   35 15 24.1 101.18   -20 LegendNANA
08:00 -12.6 -15.6 79   33 14 24.1 101.27   -20 Mainly Clear
09:00 -11.3 -15.3 72   36 12 24.1 101.37   -17 LegendNANA
10:00 -9.4 -15.0 64   36 15 24.1 101.40   -16 LegendNANA
11:00 -8.4 -15.7 56   34 34 24.1 101.42   -18 Mainly Clear
12:00 -6.8 -15.1 52   34 22 24.1 101.40   -14 LegendNANA
13:00 -5.8 -14.9 49   33 21 24.1 101.35   -13 LegendNANA
14:00 -5.1 -15.1 46   1 14 24.1 101.33   -10 Mainly Clear
15:00 -4.7 -15.4 43   35 23 24.1 101.40   -12 LegendNANA
16:00 -5.0 -15.3 45   34 23 24.1 101.45   -12 LegendNANA
17:00 -6.8 -15.4 51   32 11 24.1 101.51   -12 Clear
18:00 -9.7 -14.8 67   27 5 24.1 101.57   -13 LegendNANA
19:00 -11.0 -14.5 76   32 5 24.1 101.55   -14 LegendNANA
20:00 -11.2 -13.5 83   19 4 24.1 101.61   -14 Clear
21:00 -11.9 -14.4 82   36 1 24.1 101.64   -13 LegendNANA
22:00 -13.2 -15.0 87   34 4 24.1 101.65   -16 LegendNANA
23:00 -11.1 -14.9 73   3 7 24.1 101.64   -15 Clear

Notes on Data Quality.

Legend

  • E = Estimated
  • M = Missing
  • NA = Not Available*
  • [empty] = Indicates an unobserved value
Date modified: